Regional Weather Roundup
Issued by NWS

Home | Current Version | Previous Version | Text Only | Print | Product List | Glossary Off
Versions: 1 2 3 4 5 6 7 8 9 10 11 12 13 14 15 16 17 18 19 20 21 22 23 24 25 26 27 28 29 30 31 32 33 34 35 36 37 38 39 40 41 42 43 44 45 46 47 48 49 50

701
ASUS44 KLIX 251901
RWRLA
LOUISIANA WEATHER ROUNDUP
NATIONAL WEATHER SERVICE NEW ORLEANS LA
200 PM CDT SAT OCT 25 2014

NOTE: "FAIR" INDICATES FEW OR NO CLOUDS BELOW 12,000 FEET WITH NO
      SIGNIFICANT WEATHER AND/OR OBSTRUCTIONS TO VISIBILITY.
      SKY/WX - SKY CONDITION AND SIGNIFICANT WEATHER.
      TMP - AIR TEMPERATURE.    DP   - DEWPOINT TEMPERATURE.
      RH  - RELATIVE HUMIDITY.  PRES - PRESSURE.
      HX  - HEAT INDEX.         WCI  - WIND CHILL INDEX.

*  THESE STATIONS ARE NOT NWS OR FAA STATIONS AND ARE NOT UNDER
   NWS QUALITY CONTROL.

LAZ040-048-061>063-065-066-069-252000-
SOUTHEAST LOUISIANA

CITY           SKY/WX    TMP DP  RH WIND       PRES   REMARKS
N.O. AUDUBON     N/A     80  55  42 MISG        N/A
N.O. INTL ARPT SUNNY     76  50  40 N7        30.11F
N.O. LAKEFRONT SUNNY     73  54  51 NW8       30.11F
N.O. DOWNTOWN* FAIR      77  48  36 NW5       30.11F
SLIDELL        SUNNY     79  54  41 MISG      30.09F
BATON ROUGE    SUNNY     81  52  36 N3        30.11F
BOOTHVILLE     SUNNY     73  53  49 N7        30.11F
BELLE CHASSE   SUNNY     79  51  37 NE6       30.10F
BOGALUSA*        N/A     81  54  39 N8        30.10F
NEW ROADS*     FAIR      79  52  38 NW3       30.12F
GONZALES*      FAIR      78  53  42 NW5       30.11F
HAMMOND*       NOT AVBL
HOUMA*         SUNNY     79  54  41 NE9       30.10F
PORT FOURCHON* CLEAR     73  55  53 NE10      30.14F

$$

LAZ041-044-053-054-252000-
SOUTHWEST LOUISIANA

CITY           SKY/WX    TMP DP  RH WIND       PRES   REMARKS
LAKE CHARLES   SUNNY     81  49  32 VRB3      30.13F
LAFAYETTE      SUNNY     81  50  33 VRB3      30.12F
PATTERSON      SUNNY     79  54  41 N5        30.14F
SALT POINT       N/A     74  59  59 W5        30.11F
NEW IBERIA     SUNNY     82  52  35 NE8       30.12F
CHENAULT AIRPK SUNNY     79  52  38 CALM      30.13

$$

LAZ027-028-252000-
CENTRAL LOUISIANA

CITY           SKY/WX    TMP DP  RH WIND       PRES   REMARKS
FORT POLK      SUNNY     81  53  37 VRB2      30.12F
ALEXANDRIA INT SUNNY     82  52  35 VRB5      30.11F
ALEXANDRIA     SUNNY     80  55  42 VRB5      30.12F

$$

LAZ001-002-252000-
NORTHWEST LOUISIANA

CITY           SKY/WX    TMP DP  RH WIND       PRES   REMARKS
SHREVEPORT     SUNNY     82  61  48 W5        30.10F
BARKSDALE AFB  SUNNY     83  60  45 W5        30.11F
DTN SHREVEPORT SUNNY     81  60  48 SW9       30.11F

$$

LAZ014-016-252000-
NORTHEAST LOUISIANA

CITY           SKY/WX    TMP DP  RH WIND       PRES   REMARKS
MONROE         SUNNY     80  57  45 W6        30.12F
TALLULAH       SUNNY     79  58  48 CALM      30.11F

$$




USA.gov is the U.S. government's official web portal to all federal, state and local government web resources and services.